This is the latest recevied weather packets stored in our database for station/object WD0REW. If no packets are shown the sender has not sent any weather packets the latest 10 day(s).
| Time | Temp. | Humidity | Pressure | Rain* | Wind** | Luminosity | Snow |
|---|---|---|---|---|---|---|---|
| 1778026985 | 7.78° C | 89% | 1010.7 hPa | 0 mm | - | 4 W/m² | - |
| 1778026680 | 7.78° C | 88% | 1010.6 hPa | 0 mm | - | 8 W/m² | - |
| 1778026378 | 7.78° C | 88% | 1010.7 hPa | 0 mm | - | 9 W/m² | - |
| 1778026075 | 7.78° C | 88% | 1010.5 hPa | 0 mm | - | 12 W/m² | - |
| 1778025772 | 7.78° C | 89% | 1010.7 hPa | 0 mm | - | 7 W/m² | - |
| 1778025469 | 7.78° C | 89% | 1010.4 hPa | 0 mm | - | 9 W/m² | - |
| 1778025167 | 7.78° C | 89% | 1010.1 hPa | 0 mm | - | 16 W/m² | - |
| 1778024863 | 7.78° C | 89% | 1010.7 hPa | 0 mm | - | 21 W/m² | - |
| 1778024561 | 7.78° C | 89% | 1010.8 hPa | 0 mm | - | 14 W/m² | - |
| 1778024257 | 7.78° C | 89% | 1010.8 hPa | 0 mm | - | 12 W/m² | - |
| 1778023956 | 7.78° C | 89% | 1010.7 hPa | 0 mm | - | 8 W/m² | - |
| 1778023652 | 7.78° C | 89% | 1010.4 hPa | 0 mm | - | 15 W/m² | - |
| 1778023350 | 7.78° C | 89% | 1010 hPa | 0 mm | - | 17 W/m² | - |
| 1778023046 | 7.78° C | 90% | 1010.1 hPa | 0 mm | - | 22 W/m² | - |
| 1778022746 | 7.78° C | 91% | 1009.7 hPa | 0 mm | - | 35 W/m² | - |
| 1778022443 | 7.78° C | 91% | 1010.1 hPa | 0 mm | - | 31 W/m² | - |
| 1778022139 | 7.78° C | 91% | 1010.3 hPa | 0 mm | - | 14 W/m² | - |
| 1778021836 | 7.78° C | 90% | 1010.1 hPa | 0 mm | - | 26 W/m² | - |
| 1778021533 | 7.78° C | 90% | 1010.3 hPa | 1.27 mm | - | 25 W/m² | - |
| 1778021228 | 7.78° C | 89% | 1010.5 hPa | 1.27 mm | - | 29 W/m² | - |
| 1778020927 | 8.33° C | 88% | 1010.5 hPa | 0 mm | - | 14 W/m² | - |
| 1778020624 | 8.33° C | 88% | 1010.4 hPa | 0 mm | - | 18 W/m² | - |
| 1778020320 | 8.33° C | 89% | 1010.3 hPa | 0 mm | - | 18 W/m² | - |
| 1778020016 | 8.33° C | 90% | 1010.3 hPa | 0 mm | - | 27 W/m² | - |
| 1778019712 | 8.89° C | 91% | 1010.2 hPa | 0 mm | - | 24 W/m² | - |
* Rain latest hour (hover to see other rain measurements)
** Current wind speed in m/s (hover to see current wind gust speed)